Flag for Switzerland Weather past 2 weeks in Riehen, Basel-Stadt, Switzerland

Now
63 °F

Mild.


Feels Like: 63 °F
Forecast: 61 / 74 °F
Wind: 2 mph from South

Location: Bale-Mulhouse

Current Time: Aug 31, 2015 at 3:18:44 AM

Latest Report: Aug 31, 2015 at 2:00 AM


Visibility: 37 mi

Pressure: 30.01 "Hg

Humidity: 79%

Dew point: 56 °F

Location of RiehenLocation

Historic Weather in Riehen — Graph

°F

Riehen temperature yesterday

Maximum temperature yesterday: 93 °F (at 4:00 PM)
Minimum temperature yesterday: 65 °F (at 4:00 AM)
Average temperature yesterday: 78 °F

Past Weeks' High & Low Weather Summary

 TemperatureHumidityPressure
High93 °F (Aug 30, 4:00 PM)99% (Aug 20, 8:00 AM)30.26 "Hg (Aug 20, 8:00 AM)
Low49 °F (Aug 20, 7:00 AM)24% (Aug 30, 5:00 PM)29.68 "Hg (Aug 24, 1:00 PM)
Average67 °F71%30.01 "Hg
* Reported Aug 16 2:00 AM — Aug 31 2:00 AM, Riehen, Weather by CustomWeather, © 2015

Note: Actual official high and low records may vary slightly from our data, if they occured in-between our weather recording intervals... More about our weather records

Advertising

Riehen weather history for previous 24 hours

 ConditionsComfort  
Time TempWeatherWind HumidityBarometerVisibility
2:00 AM
Mon, Aug 31
63 °FMild.2 mph79%30.01 "Hg37 mi
1:00 AM64 °FMild.1 mph82%30.03 "Hg37 mi
12:00 AM64 °FPassing clouds.1 mph82%30.04 "Hg12 mi
10:00 PM
Sun, Aug 30
72 °FPassing clouds.2 mph65%30.03 "Hg12 mi
9:00 PM74 °FPassing clouds.3 mph62%30.01 "Hg19 mi
8:00 PM80 °FPassing clouds.3 mph54%29.98 "Hg25 mi
7:00 PM91 °FPassing clouds.3 mph29%29.97 "Hg25 mi
6:00 PM93 °FPassing clouds.5 mph24%29.97 "Hg25 mi
5:00 PM93 °FPassing clouds.5 mph24%29.98 "Hg25 mi
4:00 PM93 °FPassing clouds.3 mph27%29.99 "Hg25 mi
3:00 PM92 °FHot.7 mph26%30.01 "Hg16 mi
2:00 PM90 °FPassing clouds.6 mph35%30.04 "Hg25 mi
1:00 PM88 °FPassing clouds.6 mph40%30.06 "Hg25 mi
12:00 PM86 °FPassing clouds.9 mph40%30.09 "Hg25 mi
11:00 AM82 °FPassing clouds.2 mph49%30.10 "Hg25 mi
10:00 AM77 °FScattered clouds.5 mph64%30.11 "Hg25 mi
9:00 AM75 °FScattered clouds.5 mph70%30.11 "Hg25 mi
8:00 AM70 °FScattered clouds.5 mph81%30.12 "Hg19 mi
7:00 AM67 °FScattered clouds.5 mph87%30.11 "Hg12 mi
6:00 AM67 °FPassing clouds.3 mph89%30.11 "Hg12 mi
5:00 AM66 °FPassing clouds.No wind89%30.10 "Hg12 mi
4:00 AM65 °FMild.3 mph93%30.10 "Hg12 mi
3:00 AM66 °FMild.1 mph93%30.09 "Hg9 mi
Weather by CustomWeather, © 2015

See weather overviewHow to use our weather pages